AirNav   Everest Fuels
 
 644 users online  

01AL Ware Island Airport
Clanton, Alabama, USA

GOING TO CLANTON?


FAA INFORMATION EFFECTIVE 15 AUGUST 2019

Location

FAA Identifier: 01AL
Lat/Long: 32-56-45.4420N 086-30-49.9260W
32-56.757367N 086-30.832100W
32.9459561,-86.5138683
(estimated)
Elevation: 344 ft. / 104.9 m (surveyed)
Variation: 00W (1985)
From city: 9 miles NE of CLANTON, AL
Time zone: UTC -5 (UTC -6 during Standard Time)
Zip code: 35183

Airport Operations

Airport use: Private use. Permission required prior to landing
Control tower: no
ARTCC: ATLANTA CENTER
FSS: ANNISTON FLIGHT SERVICE STATION
Attendance: UNATNDD
Wind indicator: yes
Segmented circle: no
Lights: FOR LIRL RY N/S CALL 205-907-0737 OR 205-410-1930.

Airport Communications

WX AWOS-3PT at SCD (17 nm NE): 119.125 (256-249-2620)
WX ASOS at EET (19 nm NW): 134.325 (205-663-5881)

Airport Services

Airframe service: NONE
Powerplant service: NONE

Runway Information

Runway N/S

Dimensions: 2400 x 60 ft. / 732 x 18 m
Surface: turf
Runway edge lights: low intensity
RUNWAY N  RUNWAY S
Traffic pattern: rightright
Obstructions: treestrees

Airport Ownership and Management from official FAA records

Ownership: Privately-owned
Owner: RICHARD & BETTY MEYER
1000 WARE ISLAND
CLANTON, AL 35046
Phone (205) 907-0737
ARPT PHONE NUMBER 205-907-0737.

Airport Operational Statistics

Aircraft based on the field: 3
Single engine airplanes: 3
    
Aircraft operations: avg 33/month
100% transient general aviation

Additional Remarks

FOR CD CTC ATLANTA ARTCC AT 770-210-7692.

Instrument Procedures

There are no published instrument procedures at 01AL.

Some nearby airports with instrument procedures:

02A - Chilton County Airport (8 nm SW)
KSCD - Merkel Field Sylacauga Municipal Airport (17 nm NE)
KEET - Shelby County Airport (19 nm NW)
08A - Wetumpka Municipal Airport (27 nm S)
KALX - Thomas C Russell Field Airport (28 nm E)
 
Loc | Ops | Rwys | IFR | FBO | Links
Com | Nav | Svcs | Stats | Notes
Area around 01AL (Ware Island Airport)
 
Road maps at: MapQuest Bing Google
 
Aerial photo
No photo
 
Sectional chart

 
Airport distance calculator
Flying to Ware Island Airport? Find the distance to fly.

From to 01AL

Sunrise and sunset
Times for 17-Aug-2019
 Local
(UTC-5)
 Zulu
(UTC)
Morning civil twilight05:4610:46
Sunrise06:1211:12
Sunset19:2900:29
Evening civil twilight19:5500:55

Current date and time
Zulu (UTC)  18-Aug-2019 03:47:39
Local (UTC-5)  17-Aug-2019 22:47:39
 
METAR
KSCD 
17nm NE 
180335Z AUTO 00000KT 10SM CLR 24/20 A2998 RMK AO2 LTG DSNT S T02400197
KEET 
20nm NW 
180253Z AUTO 00000KT 10SM CLR 26/19 A2996 RMK AO2 SLP138 T02560194 53011
KALX 
27nm E 
180335Z AUTO 00000KT 10SM CLR 23/21 A2999 RMK AO2 LTG DSNT S T02320206
KEKY 
30nm NW 
180256Z AUTO 00000KT 10SM CLR 26/18 A2998 RMK AO2 SLP998 T02560178 53012
K1A9 
30nm S 
180335Z AUTO 00000KT 10SM CLR 23/19 A2996 RMK AO2 T02260187
TAF
KEET 
20nm NW 
171728Z 1718/1818 VRB06KT P6SM SKC FM180000 00000KT P6SM SKC
NOTAMs
Click for the latest NOTAMs
NOTAMs are issued by the DoD/FAA and will open in a separate window not controlled by AirNav.

 

 
 

Would you like to see your business listed on this page?

 If your business provides an interesting product or service to pilots, flight crews, aircraft, or users of the Ware Island Airport, you should consider listing it here.  To start the listing process, click on the button below
 
Add a business
 

Other Pages about Ware Island Airport

Update a link
 
Copyright © AirNav, LLC. All rights reserved. Privacy Policy  Contact